Location: Newark
(32.8014°N, 52.8711°E)
Time: 00:57:21
(UTC+00:00)

Envisat - Pass Details

Date: 26 January 2020
Orbit: 764 x 766 km, 98.1° (Epoch: 20 February)

Event Time Altitude Azimuth Distance (km) Brightness Sun altitude
Rises 15:06:29 0° 190° (S) 3,216 6.5 -15.2°
Reaches altitude 10° 15:09:00 10° 200° (SSW) 2,294 5.9 -15.7°
Maximum altitude 15:13:29 31° 263° (W) 1,306 5.0 -16.6°
Drops below altitude 10° 15:17:59 10° 325° (NW) 2,306 5.8 -17.6°
Sets 15:20:32 0° 336° (NNW) 3,236 6.4 -18.1°
